Hourly Weather Cervinia

Today, 25 June, Friday

Time Temperature Precipitation Wind Pressure Humidity
00:00 +10°C° 0 mm 2 mps 674 mmHg 90%
01:00 +10°C° 0 mm 2 mps 674 mmHg 89%
02:00 +10°C° 0 mm 2 mps 673 mmHg 89%
03:00 +10°C° 0 mm 2 mps 673 mmHg 88%
04:00 +12°C° 0 mm 2 mps 673 mmHg 86%
05:00 +12°C° 0 mm 2 mps 673 mmHg 84%
06:00 +13°C° 0 mm 2 mps 673 mmHg 82%
07:00 +15°C° 0 mm 2 mps 673 mmHg 76%
08:00 +16°C° 0 mm 1 mps 673 mmHg 69%
09:00 +18°C° 0 mm 1 mps 673 mmHg 63%
10:00 +19°C° 0.1 mm 1 mps 673 mmHg 60%
11:00 +20°C° 0.1 mm 1 mps 673 mmHg 57%
12:00 +20°C° 0.1 mm 2 mps 674 mmHg 54%
13:00 +20°C° 0.2 mm 2 mps 673 mmHg 54%
14:00 +20°C° 0.2 mm 2 mps 673 mmHg 54%
15:00 +21°C° 0.2 mm 2 mps 673 mmHg 54%
16:00 +20°C° 0.1 mm 2 mps 673 mmHg 59%
17:00 +19°C° 0.1 mm 2 mps 673 mmHg 65%
18:00 +19°C° 0.1 mm 1 mps 673 mmHg 70%
19:00 +18°C° 0 mm 1 mps 673 mmHg 75%
20:00 +15°C° 0 mm 1 mps 673 mmHg 79%
21:00 +14°C° 0 mm 1 mps 674 mmHg 84%
22:00 +13°C° 0 mm 1 mps 674 mmHg 83%
23:00 +13°C° 0 mm 1 mps 673 mmHg 82%

Tomorrow, 26 June, Saturday

Time Temperature Precipitation Wind Pressure Humidity
00:00 +13°C° 0 mm 1 mps 673 mmHg 81%
01:00 +13°C° 0 mm 1 mps 673 mmHg 81%
02:00 +13°C° 0 mm 1 mps 673 mmHg 80%
03:00 +12°C° 0 mm 1 mps 673 mmHg 80%
04:00 +14°C° 0 mm 1 mps 674 mmHg 77%
05:00 +15°C° 0 mm 1 mps 674 mmHg 73%
06:00 +18°C° 0 mm 1 mps 674 mmHg 69%
07:00 +19°C° 0 mm 1 mps 674 mmHg 63%
08:00 +21°C° 0 mm 1 mps 674 mmHg 57%
09:00 +22°C° 0 mm 1 mps 674 mmHg 51%
10:00 +23°C° 0.1 mm 1 mps 674 mmHg 50%
11:00 +24°C° 0.1 mm 2 mps 674 mmHg 49%
12:00 +24°C° 0.1 mm 2 mps 674 mmHg 48%
13:00 +24°C° 0.3 mm 2 mps 674 mmHg 50%
14:00 +24°C° 0.3 mm 2 mps 674 mmHg 53%
15:00 +24°C° 0.3 mm 2 mps 674 mmHg 55%
16:00 +23°C° 0.5 mm 2 mps 674 mmHg 62%
17:00 +22°C° 0.5 mm 1 mps 674 mmHg 69%
18:00 +21°C° 0.5 mm 1 mps 674 mmHg 76%
19:00 +19°C° 0.3 mm 1 mps 674 mmHg 78%
20:00 +18°C° 0.3 mm 1 mps 674 mmHg 80%
21:00 +16°C° 0.3 mm 1 mps 674 mmHg 83%
22:00 +15°C° 0 mm 1 mps 674 mmHg 83%
23:00 +15°C° 0 mm 1 mps 674 mmHg 83%

Day after tomorrow, 27 June, Sunday

Time Temperature Precipitation Wind Pressure Humidity
00:00 +15°C° 0 mm 1 mps 674 mmHg 83%
01:00 +15°C° 0 mm 1 mps 674 mmHg 84%
02:00 +15°C° 0 mm 1 mps 674 mmHg 86%
03:00 +14°C° 0 mm 2 mps 674 mmHg 87%
04:00 +16°C° 0 mm 1 mps 674 mmHg 85%
05:00 +18°C° 0 mm 1 mps 674 mmHg 83%
06:00 +19°C° 0 mm 1 mps 674 mmHg 81%
07:00 +20°C° 0.1 mm 1 mps 674 mmHg 76%
08:00 +21°C° 0.1 mm 1 mps 674 mmHg 70%
09:00 +22°C° 0.1 mm 1 mps 674 mmHg 65%
10:00 +23°C° 0.3 mm 2 mps 674 mmHg 63%
11:00 +23°C° 0.3 mm 2 mps 674 mmHg 62%
12:00 +24°C° 0.3 mm 2 mps 674 mmHg 60%
13:00 +24°C° 0.6 mm 2 mps 674 mmHg 61%
14:00 +24°C° 0.6 mm 2 mps 674 mmHg 62%
15:00 +24°C° 0.6 mm 2 mps 674 mmHg 63%
16:00 +23°C° 0.5 mm 2 mps 674 mmHg 68%
17:00 +22°C° 0.5 mm 1 mps 674 mmHg 74%
18:00 +21°C° 0.5 mm 1 mps 674 mmHg 80%
19:00 +20°C° 0.2 mm 1 mps 674 mmHg 83%
20:00 +18°C° 0.2 mm 2 mps 674 mmHg 87%
21:00 +17°C° 0.2 mm 2 mps 674 mmHg 90%
22:00 +17°C° 0 mm 2 mps 674 mmHg 90%
23:00 +17°C° 0 mm 2 mps 674 mmHg 90%

28 June, Monday

Time Temperature Precipitation Wind Pressure Humidity
00:00 +16°C° 0 mm 2 mps 674 mmHg 91%
01:00 +16°C° 0 mm 2 mps 674 mmHg 91%
02:00 +16°C° 0 mm 2 mps 674 mmHg 91%
03:00 +16°C° 0 mm 2 mps 673 mmHg 91%
04:00 +17°C° 0 mm 2 mps 674 mmHg 90%
05:00 +17°C° 0 mm 2 mps 674 mmHg 89%
06:00 +18°C° 0 mm 2 mps 674 mmHg 88%
07:00 +19°C° 0.2 mm 2 mps 674 mmHg 82%
08:00 +21°C° 0.2 mm 3 mps 674 mmHg 77%
09:00 +22°C° 0.2 mm 3 mps 674 mmHg 72%
10:00 +22°C° 0.3 mm 3 mps 674 mmHg 69%
11:00 +24°C° 0.3 mm 3 mps 674 mmHg 66%
12:00 +24°C° 0.3 mm 3 mps 674 mmHg 63%
13:00 +24°C° 0.6 mm 3 mps 674 mmHg 66%
14:00 +22°C° 0.6 mm 3 mps 673 mmHg 69%
15:00 +22°C° 0.6 mm 3 mps 673 mmHg 72%
16:00 +21°C° 1.3 mm 3 mps 673 mmHg 78%
17:00 +20°C° 1.3 mm 2 mps 673 mmHg 84%
18:00 +19°C° 1.3 mm 2 mps 673 mmHg 90%
19:00 +18°C° 1.7 mm 2 mps 673 mmHg 91%
20:00 +17°C° 1.7 mm 2 mps 673 mmHg 92%
21:00 +17°C° 1.7 mm 2 mps 673 mmHg 93%
22:00 +16°C° 0.4 mm 2 mps 672 mmHg 92%
23:00 +16°C° 0.4 mm 2 mps 672 mmHg 91%

29 June, Tuesday

Time Temperature Precipitation Wind Pressure Humidity
00:00 +15°C° 0.4 mm 1 mps 672 mmHg 91%
01:00 +15°C° 0.1 mm 1 mps 671 mmHg 92%
02:00 +15°C° 0.1 mm 1 mps 671 mmHg 93%
03:00 +14°C° 0.1 mm 1 mps 671 mmHg 93%
04:00 +15°C° 0.1 mm 1 mps 671 mmHg 92%
05:00 +16°C° 0.1 mm 1 mps 671 mmHg 91%
06:00 +18°C° 0.1 mm 1 mps 671 mmHg 90%
07:00 +18°C° 0.4 mm 1 mps 671 mmHg 87%
08:00 +19°C° 0.4 mm 1 mps 671 mmHg 84%
09:00 +19°C° 0.4 mm 2 mps 671 mmHg 81%
10:00 +19°C° 1 mm 2 mps 671 mmHg 80%
11:00 +19°C° 1 mm 2 mps 671 mmHg 80%
12:00 +19°C° 1 mm 2 mps 671 mmHg 80%
13:00 +19°C° 1.9 mm 2 mps 671 mmHg 82%
14:00 +18°C° 1.9 mm 2 mps 671 mmHg 85%
15:00 +17°C° 1.9 mm 2 mps 671 mmHg 87%
16:00 +17°C° 0.7 mm 2 mps 671 mmHg 86%
17:00 +17°C° 0.7 mm 2 mps 671 mmHg 84%
18:00 +17°C° 0.7 mm 2 mps 671 mmHg 82%
19:00 +16°C° 0 mm 2 mps 671 mmHg 83%
20:00 +14°C° 0 mm 2 mps 671 mmHg 84%
21:00 +13°C° 0 mm 2 mps 671 mmHg 86%
22:00 +13°C° 0 mm 2 mps 671 mmHg 86%
23:00 +12°C° 0 mm 2 mps 671 mmHg 86%

30 June, Wednesday

Time Temperature Precipitation Wind Pressure Humidity
00:00 +12°C° 0 mm 2 mps 671 mmHg 86%
01:00 +12°C° 0 mm 2 mps 671 mmHg 84%
02:00 +10°C° 0 mm 2 mps 670 mmHg 83%
03:00 +10°C° 0 mm 2 mps 670 mmHg 82%
04:00 +12°C° 0 mm 1 mps 670 mmHg 77%
05:00 +14°C° 0 mm 1 mps 670 mmHg 71%
06:00 +15°C° 0 mm 1 mps 670 mmHg 66%
07:00 +16°C° 0 mm 1 mps 670 mmHg 61%
08:00 +19°C° 0 mm 1 mps 670 mmHg 56%
09:00 +20°C° 0 mm 1 mps 671 mmHg 50%
10:00 +20°C° 0.3 mm 2 mps 670 mmHg 52%
11:00 +20°C° 0.3 mm 2 mps 670 mmHg 54%
12:00 +21°C° 0.3 mm 2 mps 670 mmHg 55%
13:00 +20°C° 1.5 mm 2 mps 670 mmHg 64%
14:00 +18°C° 1.5 mm 2 mps 669 mmHg 73%
15:00 +17°C° 1.5 mm 2 mps 669 mmHg 81%
16:00 +17°C° 2 mm 2 mps 669 mmHg 84%
17:00 +16°C° 2 mm 2 mps 669 mmHg 87%
18:00 +15°C° 2 mm 2 mps 669 mmHg 90%
19:00 +14°C° 0.6 mm 2 mps 669 mmHg 91%
20:00 +14°C° 0.6 mm 2 mps 670 mmHg 92%
21:00 +12°C° 0.6 mm 3 mps 670 mmHg 93%
22:00 +12°C° 0.5 mm 3 mps 670 mmHg 93%
23:00 +11°C° 0.5 mm 3 mps 670 mmHg 93%
Show more

We Need Your Consent

Meteoprog and our Service Providers may store and access personal data such as cookies, device identifiers or other similar technologies on your device and process such data to personalise content and ads, as well as provide social media features and to analyse the traffic.

  • Store and/or access information on your device

    Cookies, device identifiers or other information can be stored or accessed on your device for the purposes indicated above.

  • Personalised ads and content, ad and content measurement, audience insights, and products development

    Ads and content can be personalised based on a profile. More data can be added to better personalise ads and content. Ad and content performance can be measured. Insights about the audience who saw the ads and content can be derived. Such data can be used to develop or improve user’s experience, systems and software.

By clicking ‘I Agree’ you will allow the use of indicated cookies, device identifiers, web beacons or other similar technologies. Your settings can be changed in the browser on your device.

For certain purposes, legitimate interests may be relied on, rather than consent. You can read more about this in our Privacy and Cookie Policy.